loading
DOY 175 | 2024-06-23T18:30:42Z

THOR AGENA B DEB, 743

Orbit data source: Space-Track

THOR AGENA B DEB, 743 is space debris in LEO originally from a launch on Sat, 25 Jan 1964 UTC launched from the Air Force Western Test Range (AFWTR). Debris objects in space refer to the collection of defunct objects orbiting the Earth. Examples of debris include non-operational satellites, rocket bodies, and fragments generated from explosions, collisions, or faulty payload assembly.

Loading next visibility...
Loading greatness...
THOR AGENA B DEB details
NORAD ID743
COSPAR ID
1964-004D
Orbit
LEO
Last TLE update1 day ago
Origin
Flag of USNASA LaRC (US)
ManufacturerGrummann
BusEcho canister
MotorUnknown
Mass35 kg wet, 35 kg dry
Launch date (UTC)
1964-01-25 (60 years ago)
Launch vehicleUnknown
Launch site
Air Force Western Test Range (AFWTR)
Object type
Payload
Rocket body
Debris
Radar Cross Section1 m², Medium (>0.1 m² and < 1m²)
Predictive object data (real-time)
Latitude-66.83288°
Longitude55.19222°
Altitude1,202.757 km
Speed7.243 km/s
Apparent Right ascension16h 58m 41s
Apparent Declination-55° 07' 40"
Sunlit
Object is in full shadow
Predictive observer data (real-time)
Local Sidereal Time05:39:53
Azimuth159.141° S
Elevation-73.314°
Doppler factor1
Orbital elements
Apogee1,288.162 km
Perigee1,024.908 km
Semi-major axis7,534.672 km
Eccentricity0.0174695
Inclination81.5221°
RAAN38.1912°
Arg. of periapsis349.6594°
True anomaly80.7539°
Mean anomaly78.7823°
Mean motion3.31854 °/min
BSTAR0.00021186
Period108.48 mins
Definitive object data (Epoch: 2024-06-22T18:04:07.556Z)
Latitude68.80052°
Longitude-121.7731°
Altitude1,147.728 km
Speed7.297 km/s
True Right ascension04h 02m 40s
True Declination68° 41' 25"
Sunlit
Object was in daylight at TLE epoch
TLE from 1 day ago
0 THOR AGENA B DEB
1 00743U 64004D   24174.75286524  .00000112  00000-0  21186-3 0  9990
2 00743  81.5221  38.1912 0174695 349.6594  78.7823 13.26693135922064
Epoch: 2024-06-22T18:04Z
No data available

THOR AGENA B DEB Visibility forecast

Observer location: 39.9160978°, -105.1181434, 0m alt.

THOR AGENA B DEB is not visible in the next 10 days
Span
Click to sort rows by Start time (UTC) header in descending order
Start Az.
Max El. time (UTC)
Max El. Az.
Max El.
End time (UTC)
End Az.